Weather History for Toledo, OH

Change the Weather History Date:

Monday, August 4, 2014

  Actual Average Record
Temperature  
Mean Temperature 71 °F 73 °F  
Max Temperature 86 °F 83 °F 96 °F (1944)
Min Temperature 56 °F 62 °F 44 °F (1978)
Degree Days  
Heating Degree Days 0 0  
Month to date heating degree days 0 0  
Since 1 June heating degree days 25 38  
Since 1 July heating degree days 9 3  
Cooling Degree Days 6 8  
Month to date cooling degree days 22 32  
Year to date cooling degree days 412 520  
Since 1 June cooling degree days 350 467  
Growing Degree Days 20 (Base 50)    
Moisture  
Dew Point 60 °F    
Average Humidity 72    
Maximum Humidity 100    
Minimum Humidity 44    
Precipitation  
Precipitation 0.05 in 0.11 in 0.70 in (2012)
Month to date precipitation 0.09 0.44  
Year to date precipitation 18.75 20.61  
Snow  
Snow 0.00 in 0.00 in - ()
Month to date snowfall 0.0 0.0  
Since 1 June snowfall 0.0 0.0  
Since 1 July snowfall 0.0 0.0  
Snow Depth 0.00 in    
Sea Level Pressure  
Sea Level Pressure 30.08 in    
Wind  
Wind Speed 2 mph (WSW)    
Max Wind Speed 16 mph    
Max Gust Speed 21 mph    
Visibility 9 miles    
Events Rain , Thunderstorm    
T = Trace of Precipitation, MM = Missing Value Source: NWS Daily Summary

Daily Weather History Graph

Daily Weather History Graph

Search for Another Location

Airport:

Trip Planner

Search our weather history database for the weather conditions in past years. The results will help you decide how hot, cold, wet, or windy it might be!

Date:

Astronomy

Aug. 04, 2014 Rise Set
Actual Time 6:32 AM EDT 8:49 PM EDT
Civil Twilight 6:01 AM EDT 9:20 PM EDT
Nautical Twilight 5:23 AM EDT 9:58 PM EDT
Astronomical Twilight 4:41 AM EDT 10:40 PM EDT
Moon 3:00 PM EDT (8/4) 12:39 AM EDT (8/4)
Length of Visible Light 15h 18m
Length of Day
14h 16m
First Quarter, 57% of the Moon is Illuminated
Aug 4
First Quarter
Aug 10
Full
Aug 17
Last Quarter
Aug 25
New
Sep 2
First Quarter

Hourly Weather History & Observations

Time (EDT) Temp. Heat Index Dew Point Humidity Pressure Visibility Wind Dir Wind Speed Gust Speed Precip Events Conditions
12:52 AM 64.9 °F - 59.0 °F 81% 30.08 in 8.0 mi Calm Calm - N/A   Clear
1:52 AM 62.6 °F - 57.2 °F 82% 30.10 in 7.0 mi WSW 3.5 mph - N/A   Clear
2:52 AM 62.1 °F - 57.0 °F 84% 30.08 in 8.0 mi Calm Calm - N/A   Clear
3:52 AM 62.1 °F - 55.9 °F 80% 30.08 in 9.0 mi WSW 6.9 mph - N/A   Clear
4:52 AM 62.6 °F - 53.6 °F 72% 30.09 in 10.0 mi WSW 4.6 mph - N/A   Clear
5:52 AM 57.2 °F - 53.6 °F 88% 30.08 in 10.0 mi Calm Calm - N/A   Clear
6:52 AM 57.9 °F - 54.0 °F 87% 30.08 in 8.0 mi Calm Calm - N/A   Clear
7:52 AM 62.1 °F - 55.9 °F 80% 30.09 in 9.0 mi Calm Calm - N/A   Clear
8:52 AM 66.9 °F - 57.9 °F 73% 30.11 in 9.0 mi West 4.6 mph - N/A   Clear
9:52 AM 73.0 °F - 60.1 °F 64% 30.12 in 9.0 mi Calm Calm - N/A   Clear
10:52 AM 78.1 °F - 61.0 °F 56% 30.11 in 10.0 mi NW 3.5 mph - N/A   Clear
11:52 AM 81.0 °F 81.7 °F 61.0 °F 50% 30.11 in 10.0 mi Variable 4.6 mph - N/A   Clear
12:52 PM 84.0 °F 84.4 °F 61.0 °F 46% 30.09 in 9.0 mi WSW 4.6 mph - N/A   Partly Cloudy
1:52 PM 84.9 °F 84.8 °F 60.1 °F 43% 30.08 in 9.0 mi Variable 4.6 mph - N/A Thunderstorm Clear
2:52 PM 70.0 °F - 63.0 °F 78% 30.09 in 5.0 mi WNW 6.9 mph - 0.04 in Rain , Thunderstorm Light Rain
3:20 PM 68.0 °F - 62.6 °F 83% 30.08 in 9.0 mi WSW 9.2 mph - 0.00 in Rain Light Rain
3:52 PM 75.0 °F - 63.0 °F 66% 30.05 in 10.0 mi SW 3.5 mph - 0.01 in Rain Light Rain
4:52 PM 78.8 °F - 60.8 °F 54% 30.05 in 10.0 mi Calm Calm - N/A   Clear
5:52 PM 75.9 °F - 66.0 °F 71% 30.05 in 10.0 mi West 6.9 mph - N/A   Clear
6:52 PM 77.0 °F - 64.9 °F 66% 30.05 in 9.0 mi WSW 4.6 mph - 0.00 in   Mostly Cloudy
7:52 PM 75.9 °F - 64.9 °F 69% 30.05 in 10.0 mi Calm Calm - N/A   Clear
8:52 PM 70.0 °F - 66.0 °F 87% 30.06 in 7.0 mi Calm Calm - N/A   Clear
9:52 PM 66.9 °F - 66.0 °F 97% 30.06 in 7.0 mi Calm Calm - N/A   Clear
10:52 PM 66.0 °F - 64.9 °F 96% 30.06 in 7.0 mi Calm Calm - N/A   Clear
11:52 PM 64.9 °F - 64.0 °F 97% 30.06 in 4.0 mi Calm Calm - N/A   Clear